Mineral Wells, TX

10:12 AM CDT on April 24, 2017 (GMT -0500)
Mineral Wells

Weather History for KMWL - June, 2013

Change the Weather History Date:

Thursday, June 6, 2013

  Actual Average Record
Temperature  
Mean Temperature 74 °F -  
Max Temperature 81 °F 86 °F 102 °F (2006)
Min Temperature 66 °F 66 °F 55 °F (1998)
Cooling Degree Days 8    
Growing Degree Days 24 (Base 50)    
Moisture  
Dew Point 64 °F    
Average Humidity 78    
Maximum Humidity 94    
Minimum Humidity 54    
Precipitation  
Precipitation 0.48 in - - ()
Sea Level Pressure  
Sea Level Pressure 29.87 in    
Wind  
Wind Speed 9 mph (North)    
Max Wind Speed 21 mph    
Max Gust Speed 34 mph    
Visibility 10 miles    
Events Rain , Thunderstorm    
Averages and records for this station are not official NWS values.
T = Trace of Precipitation, MM = Missing Value Source: NWS Daily Summary

Daily Weather History Graph

Daily Weather History Graph

Search for Another Location

Airport or City:

Trip Planner

Search our weather history database for the weather conditions in past years. The results will help you decide how hot, cold, wet, or windy it might be!

Date:

Astronomy

Jun. 06, 2013 Rise Set
Actual Time 6:23 AM CDT 8:38 PM CDT
Civil Twilight 5:55 AM CDT 9:06 PM CDT
Nautical Twilight 5:20 AM CDT 9:41 PM CDT
Astronomical Twilight 4:43 AM CDT 10:18 PM CDT
Moon 5:01 AM CDT (6/6) 7:05 PM CDT (6/6)
Length of Visible Light 15h 10m
Length of Day
14h 14m
Waning Crescent, 3% of the Moon is Illuminated
Jun 6
Waning Crescent
Jun 8
New
Jun 16
First Quarter
Jun 23
Full
Jun 29
Last Quarter

Hourly Weather History & Observations

Time (CDT) Temp. Heat Index Dew Point Humidity Pressure Visibility Wind Dir Wind Speed Gust Speed Precip Events Conditions
12:53 AM 78.1 °F - 66.0 °F 66% 29.80 in 10.0 mi ESE 4.6 mph - N/A Thunderstorm Mostly Cloudy
1:40 AM 71.6 °F - 66.2 °F 83% 29.88 in 10.0 mi WNW 20.7 mph 34.5 mph 0.00 in Rain , Thunderstorm Light Thunderstorms and Rain
1:53 AM 70.0 °F - 64.9 °F 84% 29.84 in 10.0 mi WNW 16.1 mph 28.8 mph 0.00 in Rain , Thunderstorm Light Thunderstorms and Rain
2:23 AM 68.0 °F - 64.4 °F 88% 29.88 in 1.8 mi WSW 18.4 mph 24.2 mph 0.30 in Rain , Thunderstorm Heavy Thunderstorms and Rain
2:38 AM 69.8 °F - 66.2 °F 88% 29.86 in 3.0 mi SSE 5.8 mph - 0.46 in Rain , Thunderstorm Heavy Thunderstorms and Rain
2:53 AM 69.1 °F - 66.0 °F 90% 29.81 in 10.0 mi ENE 10.4 mph 18.4 mph 0.47 in Rain , Thunderstorm Light Rain
3:19 AM 68.0 °F - 66.2 °F 94% 29.88 in 10.0 mi NW 8.1 mph - 0.00 in Rain Light Rain
3:53 AM 68.0 °F - 66.0 °F 93% 29.85 in 10.0 mi WNW 3.5 mph - 0.00 in   Mostly Cloudy
4:53 AM 68.0 °F - 64.9 °F 90% 29.80 in 10.0 mi ENE 4.6 mph - 0.01 in Rain Light Rain
5:53 AM 68.0 °F - 64.9 °F 90% 29.78 in 10.0 mi NE 9.2 mph - 0.00 in   Scattered Clouds
6:53 AM 66.9 °F - 64.0 °F 90% 29.83 in 10.0 mi East 4.6 mph - N/A   Partly Cloudy
7:53 AM 68.0 °F - 64.9 °F 90% 29.86 in 10.0 mi ESE 3.5 mph - N/A   Clear
8:53 AM 70.0 °F - 64.9 °F 84% 29.86 in 10.0 mi ENE 4.6 mph - N/A   Clear
9:53 AM 70.0 °F - 64.0 °F 81% 29.86 in 10.0 mi NW 6.9 mph - N/A   Overcast
10:53 AM 69.1 °F - 64.0 °F 84% 29.88 in 10.0 mi NW 9.2 mph - 0.00 in   Overcast
11:20 AM 69.8 °F - 64.4 °F 83% 29.91 in 10.0 mi WNW 6.9 mph - 0.00 in Rain Light Rain
11:53 AM 70.0 °F - 64.0 °F 81% 29.90 in 10.0 mi NNW 11.5 mph 18.4 mph 0.00 in   Overcast
12:02 PM 71.6 °F - 64.4 °F 78% 29.94 in 10.0 mi NW 10.4 mph - N/A   Overcast
12:53 PM 73.0 °F - 64.0 °F 73% 29.91 in 10.0 mi NW 9.2 mph - N/A   Partly Cloudy
1:53 PM 73.9 °F - 63.0 °F 68% 29.90 in 10.0 mi NNW 9.2 mph - N/A   Clear
2:53 PM 78.1 °F - 63.0 °F 60% 29.89 in 10.0 mi North 13.8 mph - N/A   Mostly Cloudy
3:53 PM 78.1 °F - 63.0 °F 60% 29.88 in 10.0 mi North 13.8 mph - N/A   Overcast
4:53 PM 81.0 °F 82.2 °F 63.0 °F 54% 29.85 in 10.0 mi North 12.7 mph - N/A   Mostly Cloudy
5:53 PM 79.0 °F - 63.0 °F 58% 29.85 in 10.0 mi North 11.5 mph - N/A   Scattered Clouds
6:53 PM 79.0 °F - 64.0 °F 60% 29.85 in 10.0 mi NNE 12.7 mph - N/A   Clear
7:53 PM 77.0 °F - 62.1 °F 60% 29.86 in 10.0 mi NNE 9.2 mph - N/A   Clear
8:53 PM 73.9 °F - 64.0 °F 71% 29.89 in 10.0 mi NE 3.5 mph - N/A   Mostly Cloudy
9:53 PM 72.0 °F - 64.0 °F 76% 29.91 in 10.0 mi NNE 4.6 mph - N/A   Mostly Cloudy
10:53 PM 71.1 °F - 64.0 °F 78% 29.93 in 10.0 mi NE 4.6 mph - N/A   Clear
11:53 PM 69.1 °F - 64.0 °F 84% 29.94 in 10.0 mi NNE 3.5 mph - N/A   Clear